Riverside, CA

8:14 AM PDT on April 23, 2018 (GMT -0700)
Riverside Municipal

Weather History for KRAL - March, 2013

Change the Weather History Date:

Friday, March 8, 2013

  Actual Average Record
Temperature  
Mean Temperature 50 °F 58 °F  
Max Temperature 54 °F 70 °F 93 °F (1916)
Min Temperature 45 °F 46 °F 31 °F (1908)
Degree Days  
Heating Degree Days 15 7  
Month to date heating degree days 48 63  
Since 1 July heating degree days 1064 1171  
Cooling Degree Days 0 0  
Month to date cooling degree days 3 0  
Year to date cooling degree days 6 9  
Moisture  
Dew Point 42 °F    
Average Humidity 76    
Maximum Humidity 93    
Minimum Humidity 59    
Precipitation  
Precipitation 0.46 in 0.10 in 1.93 in (1968)
Month to date precipitation 0.53 1.06  
Year to date precipitation 2.01 7.04  
Since 1 July precipitation 3.92  
Snow  
Snow 0.00 in - - ()
Month to date snowfall 0.0  
Year to date snowfall 0.0  
Snow Depth 0.00 in    
Sea Level Pressure  
Sea Level Pressure 29.87 in    
Wind  
Wind Speed 5 mph (WSW)    
Max Wind Speed 20 mph    
Max Gust Speed 29 mph    
Visibility 9 miles    
Events Rain    
T = Trace of Precipitation, MM = Missing Value Source: NWS Daily Summary

Daily Weather History Graph

Daily Weather History Graph

Search for Another Location

Airport or City:

Astronomy

Mar. 08, 2013 Rise Set
Actual Time 6:09 AM PST 5:52 PM PST
Civil Twilight 5:44 AM PST 6:17 PM PST
Nautical Twilight 5:15 AM PST 6:46 PM PST
Astronomical Twilight 4:46 AM PST 7:15 PM PST
Moon 3:49 AM PST (3/8) 2:58 PM PST (3/8)
Length of Visible Light 12h 33m
Length of Day
11h 43m
Waning Crescent, 11% of the Moon is Illuminated
Mar 8
Waning Crescent
Mar 11
New
Mar 19
First Quarter
Mar 27
Full
Apr 2
Last Quarter

Hourly Weather History & Observations

Time (PST) Temp. Windchill Dew Point Humidity Pressure Visibility Wind Dir Wind Speed Gust Speed Precip Events Conditions
12:53 AM 48.9 °F - 44.1 °F 83% 29.82 in 10.0 mi ENE 3.5 mph - 0.00 in Rain Light Rain
1:53 AM 48.9 °F - 45.0 °F 86% 29.80 in 8.0 mi NE 3.5 mph - 0.04 in Rain Rain
2:53 AM 48.0 °F - 45.0 °F 89% 29.76 in 10.0 mi ENE 5.8 mph - 0.05 in Rain Light Rain
3:53 AM 48.0 °F - 44.1 °F 86% 29.74 in 7.0 mi Calm Calm - 0.04 in Rain Heavy Rain
4:22 AM 46.4 °F 45.2 °F 44.6 °F 93% 29.78 in 5.0 mi SSW 3.5 mph - 0.09 in Rain Rain
4:31 AM 46.4 °F 39.2 °F 44.6 °F 93% 29.78 in 4.0 mi WSW 18.4 mph 24.2 mph 0.15 in Rain Heavy Rain
4:40 AM 46.4 °F 39.5 °F 44.6 °F 93% 29.79 in 7.0 mi WSW 17.3 mph 28.8 mph 0.16 in Rain Rain
4:53 AM 46.0 °F 39.9 °F 43.0 °F 89% 29.77 in 9.0 mi West 13.8 mph 27.6 mph 0.18 in Rain Rain
5:03 AM 46.4 °F 41.5 °F 42.8 °F 87% 29.79 in 9.0 mi West 10.4 mph - 0.01 in Rain Light Rain
5:53 AM 46.0 °F 44.8 °F 42.1 °F 86% 29.80 in 10.0 mi SSW 3.5 mph - 0.01 in   Overcast
6:53 AM 46.0 °F - 44.1 °F 93% 29.83 in 10.0 mi Calm Calm - 0.00 in   Overcast
7:53 AM 48.0 °F - 43.0 °F 83% 29.85 in 10.0 mi SSE 4.6 mph - 0.01 in   Overcast
8:53 AM 48.9 °F - 39.9 °F 71% 29.85 in 10.0 mi West 5.8 mph - N/A   Scattered Clouds
9:41 AM 50.0 °F - 39.2 °F 66% 29.88 in 10.0 mi West 4.6 mph - N/A   Mostly Cloudy
9:53 AM 51.1 °F - 37.9 °F 61% 29.86 in 10.0 mi West 5.8 mph - N/A   Mostly Cloudy
10:01 AM 51.8 °F - 37.4 °F 58% 29.88 in 10.0 mi West 5.8 mph - N/A   Mostly Cloudy
10:53 AM 51.1 °F - 37.0 °F 59% 29.86 in 10.0 mi West 5.8 mph - N/A   Mostly Cloudy
11:53 AM 50.0 °F - 37.9 °F 63% 29.87 in 10.0 mi West 9.2 mph 16.1 mph 0.00 in Rain Light Rain
12:53 PM 45.0 °F 43.5 °F 39.9 °F 82% 29.88 in 2.5 mi South 3.5 mph - 0.13 in Rain Heavy Rain
12:59 PM 44.6 °F 40.7 °F 42.8 °F 93% 29.90 in 3.0 mi South 6.9 mph - 0.00 in Rain Light Rain
1:53 PM 48.0 °F - 39.9 °F 74% 29.87 in 10.0 mi SSW 8.1 mph - 0.00 in   Scattered Clouds
2:53 PM 51.1 °F - 39.9 °F 66% 29.86 in 10.0 mi SW 6.9 mph - N/A   Mostly Cloudy
3:53 PM 52.0 °F - 37.9 °F 59% 29.86 in 10.0 mi West 9.2 mph - N/A   Overcast
4:53 PM 51.1 °F - 39.0 °F 63% 29.87 in 10.0 mi West 4.6 mph - N/A   Overcast
5:53 PM 50.0 °F - 39.0 °F 66% 29.91 in 10.0 mi SW 5.8 mph - N/A   Overcast
6:36 PM 46.4 °F 44.3 °F 42.8 °F 87% 29.94 in 10.0 mi NE 4.6 mph - 0.00 in Rain Light Rain
6:53 PM 46.9 °F - 43.0 °F 86% 29.94 in 10.0 mi NNE 5.8 mph - 0.00 in   Overcast
7:29 PM 46.4 °F - 42.8 °F 87% 29.98 in 10.0 mi Calm Calm - N/A   Overcast
7:53 PM 46.9 °F - 43.0 °F 86% 29.97 in 10.0 mi NE 3.5 mph - N/A   Overcast
8:53 PM 48.0 °F - 44.1 °F 86% 29.99 in 10.0 mi Calm Calm - N/A   Overcast
9:53 PM 48.0 °F - 44.1 °F 86% 30.00 in 10.0 mi SSE 4.6 mph - 0.03 in Rain Light Rain
10:53 PM 48.0 °F - 45.0 °F 89% 30.00 in 10.0 mi Calm Calm - 0.02 in Rain Light Rain
11:11 PM 48.2 °F - 44.6 °F 87% 30.02 in 10.0 mi Calm Calm - 0.00 in Rain Light Rain
11:53 PM 48.0 °F - 45.0 °F 89% 30.01 in 7.0 mi NNE 3.5 mph - 0.03 in Rain Light Rain